CW2157 Weather Reports


time (UTC)temp
C
wind
direction
speed
KPH
gust
KPH
rain 1hr
cm
rain 24hr
cm
rain mn
cm
humidity
%
barometer
mb
20260502200704 15 53 6.4 16.1 0.00 0.00 0.00 44 1009.9
20260502200204 15 356 6.4 20.9 0.00 0.00 0.00 43 1009.9
20260502195704 15 29 9.7 16.1 0.00 0.00 0.00 44 1010.0
20260502194704 15 58 11.3 22.5 0.00 0.00 0.00 43 1010.1
20260502194204 15 61 11.3 22.5 0.00 0.00 0.00 43 1010.1
20260502193204 16 39 8.0 22.5 0.00 0.00 0.00 43 1010.3
20260502192205 16 35 11.3 19.3 0.00 0.00 0.00 44 1010.4
20260502191704 16 23 4.8 22.5 0.00 0.00 0.00 46 1010.5
20260502191204 16 312 9.7 19.3 0.00 0.00 0.00 43 1010.5
20260502190204 16 25 6.4 14.5 0.00 0.00 0.00 42 1010.6
20260502185704 16 349 4.8 19.3 0.00 0.00 0.00 48 1010.8
20260502185204 15 23 9.7 22.5 0.00 0.00 0.00 47 1010.8
20260502184704 15 323 8.0 19.3 0.00 0.00 0.00 45 1011.0
20260502184204 15 11 8.0 16.1 0.00 0.00 0.00 48 1011.1
20260502183704 15 343 4.8 20.9 0.00 0.00 0.00 48 1011.1
20260502183205 15 75 8.0 16.1 0.00 0.00 0.00 47 1011.3
20260502182204 15 15 3.2 14.5 0.00 0.00 0.00 48 1011.4
20260502181204 15 355 8.0 16.1 0.00 0.00 0.00 47 1011.5
20260502180705 15 9 14.5 20.9 0.00 0.00 0.00 49 1011.5
20260502180204 15 42 9.7 19.3 0.00 0.00 0.00 52 1011.5
20260502164204 13 346 8.0 14.5 0.00 0.00 0.00 55 1012.3
20260502163704 13 352 9.7 14.5 0.00 0.00 0.00 58 1012.3
20260502163204 12 22 8.0 16.1 0.00 0.00 0.00 56 1012.3
20260502162704 12 328 9.7 22.5 0.00 0.00 0.00 55 1012.3
20260502162204 12 358 6.4 12.9 0.00 0.00 0.00 58 1012.3
20260502161704 12 44 9.7 20.9 0.00 0.00 0.00 57 1012.3
20260502161204 12 5 9.7 20.9 0.00 0.00 0.00 56 1012.3
20260502160704 12 64 4.8 16.1 0.00 0.00 0.00 57 1012.4
20260502160204 12 5 8.0 19.3 0.00 0.00 0.00 54 1012.5
20260502152204 12 30 8.0 19.3 0.00 0.00 0.00 62 1013.0
20260502151704 12 5 9.7 16.1 0.00 0.00 0.00 63 1012.8
20260502151204 12 353 9.7 22.5 0.00 0.00 0.00 64 1012.7
20260502150704 12 351 14.5 22.5 0.00 0.00 0.00 63 1012.6
20260502150204 12 341 8.0 20.9 0.00 0.00 0.00 65 1012.4
20260502130704 11 34 11.3 20.9 0.00 0.00 0.00 63 1012.2
20260502123704 11 345 8.0 14.5 0.00 0.00 0.00 64 1012.3
20260502123204 11 355 6.4 12.9 0.00 0.00 0.00 64 1012.3
20260502122703 11 5 4.8 16.1 0.00 0.00 0.00 66 1012.2
20260502121204 11 353 6.4 19.3 0.00 0.00 0.00 65 1012.0
20260502120704 11 355 6.4 14.5 0.00 0.00 0.00 65 1012.0
20260502120203 11 352 9.7 19.3 0.00 0.00 0.00 64 1012.1
20260502115704 11 352 12.9 24.1 0.00 0.00 0.00 65 1012.2
20260502114704 11 328 6.4 16.1 0.00 0.00 0.00 65 1012.2
20260502113704 11 344 6.4 20.9 0.00 0.00 0.00 65 1012.1
20260502113204 11 0 8.0 14.5 0.00 0.00 0.00 65 1012.1
20260502112703 11 358 4.8 16.1 0.00 0.00 0.00 64 1012.2
20260502112204 11 298 4.8 14.5 0.00 0.00 0.00 63 1012.1
20260502111204 11 345 3.2 16.1 0.00 0.00 0.00 62 1012.0
20260502110704 11 322 9.7 19.3 0.00 0.00 0.00 61 1011.9
20260502110204 11 350 9.7 19.3 0.00 0.00 0.00 60 1011.9
20260502105704 11 351 8.0 20.9 0.00 0.00 0.00 61 1011.7
20260502105204 11 344 8.0 24.1 0.00 0.00 0.00 61 1011.7
20260502104704 11 257 4.8 12.9 0.00 0.00 0.00 65 1011.6
20260502103704 11 340 8.0 19.3 0.00 0.00 0.00 64 1011.8
20260502103204 11 345 3.2 16.1 0.00 0.00 0.00 65 1011.6
20260502102704 11 338 9.7 19.3 0.00 0.00 0.00 64 1011.6
20260502102204 11 322 8.0 24.1 0.00 0.00 0.00 64 1011.6
20260502101204 12 319 4.8 16.1 0.00 0.00 0.00 63 1011.5
20260502100704 12 21 8.0 19.3 0.00 0.00 0.00 63 1011.4
20260502090705 12 348 3.2 9.7 0.00 0.00 0.00 72 1011.1
20260502071205 12 328 0.0 4.8 0.00 0.00 0.00 80 1010.3
20260502070705 12 306 0.0 1.6 0.00 0.00 0.00 80 1010.3
20260502070206 12 295 0.0 3.2 0.00 0.00 0.00 80 1010.3
20260502065705 12 252 1.6 4.8 0.00 0.00 0.00 80 1010.3
20260502065206 12 196 0.0 3.2 0.00 0.00 0.00 80 1010.2
20260502064705 12 266 1.6 4.8 0.00 0.00 0.00 80 1010.3
20260502064205 12 272 3.2 9.7 0.00 0.00 0.00 80 1010.5
20260502063705 12 251 3.2 4.8 0.00 0.00 0.00 80 1010.5
20260502062705 12 229 9.7 14.5 0.00 0.00 0.00 80 1010.6
20260502062205 12 234 9.7 16.1 0.00 0.00 0.00 81 1010.5
20260502061706 12 239 11.3 16.1 0.00 0.00 0.00 82 1010.5
20260502061205 12 226 11.3 16.1 0.00 0.00 0.00 82 1010.6
20260502060706 12 226 11.3 14.5 0.00 0.00 0.00 81 1010.5
20260502060206 13 230 9.7 14.5 0.00 0.00 0.00 80 1010.8
20260502055706 13 220 11.3 14.5 0.00 0.00 0.00 80 1010.8
20260502055205 13 216 11.3 14.5 0.00 0.00 0.00 80 1010.9
20260502054705 13 193 9.7 16.1 0.00 0.00 0.00 79 1010.9
20260502054205 13 210 9.7 16.1 0.00 0.00 0.00 78 1010.9
20260502053205 13 223 11.3 14.5 0.00 0.00 0.00 77 1011.1
20260502052705 13 211 11.3 16.1 0.00 0.00 0.00 77 1011.0
20260502052205 13 222 11.3 20.9 0.00 0.00 0.00 77 1011.1
20260502051706 13 206 14.5 19.3 0.00 0.00 0.00 77 1011.0
20260502051206 13 202 11.3 19.3 0.00 0.00 0.00 76 1011.0
20260502050206 13 206 9.7 19.3 0.00 0.00 0.00 75 1010.9
20260502045705 13 190 9.7 16.1 0.00 0.00 0.00 75 1010.9
20260502044205 13 192 9.7 24.1 0.00 0.00 0.00 73 1010.8
20260502043705 13 188 11.3 22.5 0.00 0.00 0.00 73 1010.8
20260502042705 13 176 9.7 19.3 0.00 0.00 0.00 73 1010.8
20260502042205 13 193 11.3 27.4 0.00 0.00 0.00 72 1010.8
20260502041705 13 183 14.5 27.4 0.00 0.00 0.00 72 1010.7
20260502041205 13 172 9.7 16.1 0.00 0.00 0.00 71 1010.8
20260502040705 13 184 16.1 25.7 0.00 0.00 0.00 71 1010.8
20260502035705 13 192 11.3 20.9 0.00 0.00 0.00 72 1010.8
20260502034705 13 179 11.3 25.7 0.00 0.00 0.00 72 1010.8
20260502034206 13 175 11.3 27.4 0.00 0.00 0.00 70 1010.9
20260502033705 13 190 11.3 24.1 0.00 0.00 0.00 70 1010.8
20260502033205 13 175 14.5 25.7 0.00 0.00 0.00 70 1010.8
20260502032705 13 180 14.5 24.1 0.00 0.00 0.00 72 1010.7
20260502032206 13 193 12.9 22.5 0.00 0.00 0.00 71 1010.7
20260502031705 13 177 14.5 24.1 0.00 0.00 0.00 70 1010.6
20260502030706 13 201 16.1 32.2 0.00 0.00 0.00 70 1010.5
20260502030205 13 189 17.7 27.4 0.00 0.00 0.00 70 1010.5
20260502025706 13 188 19.3 32.2 0.00 0.00 0.00 70 1010.5
20260502025206 13 190 14.5 27.4 0.00 0.00 0.00 71 1010.6
20260502024705 13 181 16.1 32.2 0.00 0.00 0.00 70 1010.6
20260502024206 13 166 11.3 19.3 0.00 0.00 0.00 71 1010.6
20260502023706 13 169 14.5 27.4 0.00 0.00 0.00 72 1010.6
20260502023206 13 180 11.3 19.3 0.00 0.00 0.00 71 1010.6
20260502021706 14 187 11.3 27.4 0.00 0.00 0.00 71 1010.7
20260502021205 14 180 14.5 24.1 0.00 0.00 0.00 72 1010.7
20260502020705 14 172 17.7 25.7 0.00 0.00 0.00 70 1010.8
20260502020205 14 198 17.7 32.2 0.00 0.00 0.00 69 1010.8
20260502015705 14 196 17.7 27.4 0.00 0.00 0.00 67 1010.8
20260502015205 14 178 14.5 29.0 0.00 0.00 0.00 65 1010.8
20260502014705 14 186 12.9 24.1 0.00 0.00 0.00 64 1010.7
20260502014205 14 166 9.7 20.9 0.00 0.00 0.00 63 1010.6
20260502013205 14 175 14.5 32.2 0.00 0.00 0.00 62 1010.3
20260502012706 14 174 11.3 20.9 0.00 0.00 0.00 62 1010.1
20260502012205 14 186 11.3 25.7 0.00 0.00 0.00 61 1010.1
20260502011705 14 169 16.1 24.1 0.00 0.00 0.00 62 1009.9
20260502011206 14 169 11.3 20.9 0.00 0.00 0.00 61 1010.2
20260502010705 14 166 11.3 24.1 0.00 0.00 0.00 62 1010.3
20260502010206 14 155 9.7 19.3 0.00 0.00 0.00 59 1010.3
20260502005204 14 158 9.7 16.1 0.00 0.00 0.00 60 1010.2
20260502004705 14 152 8.0 19.3 0.00 0.00 0.00 58 1010.2
20260502003705 15 164 9.7 16.1 0.00 0.00 0.00 61 1010.2
20260502003204 15 164 11.3 16.1 0.00 0.00 0.00 58 1010.2
20260502002705 15 173 11.3 19.3 0.00 0.00 0.00 56 1010.3
20260502002206 15 170 11.3 19.3 0.00 0.00 0.00 56 1010.3
20260502001706 15 165 8.0 19.3 0.00 0.00 0.00 54 1010.3
20260502000706 15 177 9.7 19.3 0.00 0.00 0.00 51 1010.0
20260502000206 15 175 11.3 19.3 0.00 0.00 0.00 50 1009.8
20260501235705 15 194 11.3 19.3 0.00 0.00 0.00 49 1009.7
20260501234205 16 199 9.7 19.3 0.00 0.00 0.00 55 1009.4
20260501233206 16 171 11.3 19.3 0.00 0.00 0.00 55 1009.7
20260501232705 16 193 11.3 19.3 0.00 0.00 0.00 54 1009.8
20260501231705 16 204 12.9 19.3 0.00 0.00 0.00 54 1009.9
20260501231205 16 208 14.5 22.5 0.00 0.00 0.00 52 1009.8
20260501230206 16 202 14.5 22.5 0.00 0.00 0.00 48 1009.8
20260501225705 16 200 12.9 19.3 0.00 0.00 0.00 46 1009.7
20260501225205 16 184 12.9 19.3 0.00 0.00 0.00 43 1009.7
20260501224706 16 174 8.0 16.1 0.00 0.00 0.00 42 1009.8
20260501224205 16 181 9.7 24.1 0.00 0.00 0.00 42 1009.8
20260501223705 16 171 9.7 19.3 0.00 0.00 0.00 43 1009.8
20260501223205 16 155 8.0 19.3 0.00 0.00 0.00 42 1009.8
20260501222705 16 161 9.7 19.3 0.00 0.00 0.00 44 1009.7
20260501222205 16 185 11.3 19.3 0.00 0.00 0.00 44 1009.7
20260501221705 16 171 11.3 19.3 0.00 0.00 0.00 45 1009.8
20260501221204 16 167 8.0 19.3 0.00 0.00 0.00 46 1009.8
20260501220204 16 199 12.9 25.7 0.00 0.00 0.00 45 1009.9
20260501215205 17 188 9.7 20.9 0.00 0.00 0.00 44 1009.8
20260501214705 17 162 14.5 22.5 0.00 0.00 0.00 43 1009.8
20260501214205 17 164 9.7 22.5 0.00 0.00 0.00 45 1010.0
20260501213705 17 192 14.5 19.3 0.00 0.00 0.00 43 1010.0
20260501213205 17 160 9.7 20.9 0.00 0.00 0.00 43 1010.0
20260501212705 17 162 9.7 22.5 0.00 0.00 0.00 45 1010.1
20260501212205 17 191 14.5 24.1 0.00 0.00 0.00 43 1010.0
20260501211705 17 161 11.3 20.9 0.00 0.00 0.00 46 1010.1
20260501211205 17 183 11.3 22.5 0.00 0.00 0.00 45 1010.1
20260501210705 17 184 14.5 19.3 0.00 0.00 0.00 46 1010.2
20260501210205 17 206 16.1 24.1 0.00 0.00 0.00 43 1010.4
20260501205705 18 172 9.7 19.3 0.00 0.00 0.00 44 1010.5
20260501205205 18 178 11.3 20.9 0.00 0.00 0.00 45 1010.5
20260501204706 18 182 14.5 25.7 0.00 0.00 0.00 42 1010.6
20260501204204 18 190 16.1 25.7 0.00 0.00 0.00 42 1010.7
20260501203705 18 198 19.3 25.7 0.00 0.00 0.00 45 1010.7
20260501203205 18 189 19.3 27.4 0.00 0.00 0.00 46 1010.8
20260501201705 18 196 19.3 27.4 0.00 0.00 0.00 43 1010.8
20260501201204 18 182 14.5 24.1 0.00 0.00 0.00 43 1011.0